Location: Taupo
(38.6830°S, 176.0830°E)
Time: 05:54:45
(UTC+12:00)

Daily predictions for brighter satellites

Satellite Brightness Start Highest point End
(mag) Time Altitude Azimuth Time Altitude Azimuth Time Altitude Azimuth
Cosmos 2369 Rocket 3.7 04:06:05 28° SSE 04:07:51 33° ESE 04:12:55 10° ENE
SL-16 R/B 4.3 04:15:47 16° S 04:15:47 16° S 04:17:01 10° S
Cosmos 1943 Rocket 2.8 04:17:46 53° E 04:17:46 53° E 04:22:29 10° NE
Cosmos 1745 Rocket 4.0 04:28:24 73° SSE 04:28:24 73° SSE 04:33:59 10° S
Meteor 1-11 4.3 04:37:22 68° S 04:37:22 68° S 04:42:17 10° S
H-2A R/B 3.1 04:37:13 10° SSE 04:40:19 42° SE 04:40:19 42° SE
Okean O Rocket 4.0 04:39:53 10° ENE 04:43:22 23° ESE 04:46:51 10° SSE
Cosmos 1603 3.5 04:51:36 73° WNW 04:52:02 78° WSW 04:57:43 10° SSE
Nadezhda 1 Rocket 3.9 04:47:42 10° SSW 04:54:02 69° W 05:00:23 10° N
Cosmos 1607 4.3 05:03:26 43° SW 05:03:29 43° SW 05:09:25 10° SSE
USA 234 4.2 04:58:30 10° SSE 05:04:06 31° SSW 05:05:11 29° SW
Cosmos 1709 Rocket 3.8 05:01:24 10° N 05:07:33 82° W 05:13:52 10° S
Cosmos 494 Rocket 4.4 05:04:13 10° N 05:09:26 66° ENE 05:14:43 10° SSE
Cosmos 1943 3.1 05:08:58 40° NW 05:10:59 65° WSW 05:16:43 10° SSE
Lacrosse 5 4.2 05:11:00 10° SSW 05:11:30 10° S 05:12:31 10° S
Cosmos 304 Rocket 3.6 05:15:52 21° SSW 05:19:05 79° WNW 05:23:54 10° NNE
Cosmos 2221 2.9 05:14:50 10° S 05:19:18 65° E 05:23:40 10° NNE
BREEZE-M DEB (TANK) 2.5 05:19:50 64° W 05:20:14 76° SW 05:22:38 10° SE
Cosmos 1452 Rocket 3.4 05:16:25 19° SSW 05:20:15 68° WNW 05:25:30 10° N
USA 276 3.6 05:22:50 28° S 05:22:50 28° S 05:25:04 10° SE
CZ-4B R/B 2.0 05:19:44 10° SSE 05:23:16 60° E 05:26:41 10° N
X-37B 0.7 05:24:29 67° N 05:24:44 72° NNE 05:28:01 10° ESE
CZ-3 R/B 3.4 05:11:15 20° WNW 05:25:52 49° N 05:32:30 10° ENE
SL-6 R/B(2) 4.5 05:22:59 10° NW 05:33:11 72° WSW 05:36:15 10° SSE
MOS 1-B 4.4 05:27:44 10° N 05:33:26 58° WNW 05:39:12 10° SSW
SL-4 R/B 3.6 05:32:24 10° NNW 05:35:52 32° NE 05:39:37 10° ESE
Cosmos 1689 Rocket 4.1 05:33:44 10° SSE 05:36:30 32° E 05:39:13 10° NNE
Cosmos 1656 Rocket 3.6 05:31:02 10° SSW 05:36:42 89° WNW 05:42:13 10° NNE
Cosmos 2058 2.8 05:35:39 10° N 05:39:52 78° W 05:44:10 10° S
CZ-4B DEB 4.4 05:35:23 10° N 05:40:45 48° W 05:46:12 10° SSW
NOAA 12 4.5 05:39:05 10° NNE 05:44:19 68° ESE 05:49:39 10° S
ARGOS Delta rocket 3.6 05:41:09 10° N 05:45:34 88° W 05:50:06 10° S
CZ-4B R/B 3.2 05:43:56 10° N 05:49:35 69° WNW 05:55:17 10° SSW
CZ-4 R/B 4.3 05:47:51 10° ENE 05:50:29 17° ESE 05:53:08 10° SSE
ASTEX 1 4.4 05:47:04 10° NW 05:51:08 25° W 05:55:16 10° SSW
Cosmos 2369 Rocket 2.8 05:47:58 16° SW 05:51:47 33° WNW 05:56:44 10° NNW
Cosmos 1408 2.5 05:51:22 10° NNW 05:54:59 66° W 05:58:40 10° S
H-2A R/B 4.0 05:54:16 10° NW 05:56:25 18° WNW 05:56:25 18° WNW
CZ-3A R/B 4.3 05:52:10 10° NW 05:57:12 29° NNE 06:11:09 10° ENE
Cosmos 1892 3.2 05:54:14 10° NNW 05:57:46 36° WSW 06:01:21 10° S
H-2A R/B 3.5 05:56:25 10° NNW 05:59:45 29° W 06:03:06 10° SW
Cosmos 1943 Rocket 3.5 05:59:23 17° W 06:00:08 18° W 06:03:45 10° NW
Cosmos 1842 Rocket 4.1 05:56:41 10° SSW 06:00:44 34° W 06:04:42 10° NNW
Cosmos 2181 Rocket 4.2 05:55:59 10° SSW 06:02:17 53° W 06:08:29 10° NNW
Cosmos 1340 3.2 06:01:14 10° N 06:05:00 64° E 06:08:47 10° SSE
ERS-2 3.8 06:02:50 10° SSW 06:04:40 16° WSW 06:04:40 16° WSW
SMAP 3.1 06:00:35 10° N 06:05:12 60° W 06:09:53 10° SSW
ATLAS 5 CENTAUR R/B 3.9 06:03:14 10° SSW 06:07:34 23° SE 06:11:23 10° E
CORIOLIS 4.1 06:05:14 10° N 06:10:35 70° WNW 06:16:00 10° SSW
ERBS 4.1 06:10:50 14° WSW 06:12:03 17° SW 06:14:24 10° S
Okean-O 4.2 06:09:03 10° NE 06:13:12 39° ESE 06:17:24 10° S
YAOGAN 6 3.0 06:10:29 10° N 06:13:49 40° W 06:17:14 10° SSW
Cosmos 1110 Rocket 4.2 06:11:15 10° SSW 06:16:18 50° WNW 06:21:19 10° N
H-2A R/B 3.9 06:15:22 10° SW 06:16:56 12° WSW 06:17:26 12° WSW
SAR-Lupe-4 4.5 06:13:48 10° S 06:16:57 27° WSW 06:20:02 10° NW
ADEOS Rocket 3.3 06:13:10 10° S 06:19:30 62° WSW 06:26:29 10° NNW
Okean O Rocket 2.4 06:15:32 10° NNW 06:19:31 31° W 06:23:31 10° SW
Cosmos 1932 4.4 06:13:37 10° NW 06:19:42 63° WSW 06:25:50 10° SSE
Envisat 3.5 06:15:15 10° NNW 06:19:59 38° W 06:24:46 10° SSW
Cosmos 1269 Rocket 4.3 06:17:36 10° NW 06:22:44 47° WSW 06:27:54 10° S
SKYMED 2 3.7 06:18:24 10° SSE 06:22:51 82° ENE 06:27:13 10° N
Cosmos 1939 Rocket 3.9 06:18:50 10° NNE 06:22:52 52° ESE 06:26:57 10° S
Cosmos 1606 3.3 06:24:18 10° S 06:28:12 63° E 06:32:04 10° NNE
Cosmos 2184 Rocket 4.2 06:22:23 10° NNW 06:28:21 50° W 06:34:25 10° S
Cosmos 2074 Rocket 4.3 06:23:28 10° NNW 06:29:32 48° WSW 06:35:39 10° S
BREEZE-M DEB (TANK) 4.3 06:29:06 10° W 06:31:04 14° WNW 06:32:30 10° NNW
Cosmos 1302 Rocket 4.0 06:25:56 10° SSW 06:31:17 84° WNW 06:36:33 10° NNE
Cosmos 1825 2.8 06:30:01 10° NW 06:33:30 33° WSW 06:37:01 10° SSW
Helios 1A Rocket 3.0 06:30:23 10° N 06:34:32 71° WNW 06:38:47 10° SSW
Cosmos 2151 3.2 06:30:19 10° NNW 06:34:33 52° W 06:38:51 10° S
